Location: Laterina
(43.5167°N, 11.7167°E)
Time: 20:23:02
(UTC+00:00)

N. Korean satellite - Visible Passes

Search period start: 25 November 2020 00:00
Search period end: 05 December 2020 00:00
Orbit: 452 x 504 km, 97.2° (Epoch: 25 November)

Date Brightness Start Highest point End Pass type
(mag) Time Alt. Az. Time Alt. Az. Time Alt. Az.
25 Nov 10.0 03:41:51 10° ENE 03:43:31 13° E 03:45:11 10° ESE visible
25 Nov 6.9 05:13:39 10° N 05:17:02 41° WNW 05:20:27 10° SW visible
26 Nov 6.5 04:47:15 10° NNE 04:50:50 88° ESE 04:54:27 10° SSW visible
26 Nov 9.8 16:58:30 10° WSW 17:00:14 13° W 17:01:58 10° WNW visible
27 Nov 8.0 04:21:09 10° NNE 04:24:32 39° E 04:27:57 10° SSE visible
27 Nov 8.9 16:30:50 10° SSW 16:33:47 27° W 16:36:46 10° NW visible
28 Nov 9.4 03:55:29 10° NE 03:58:08 19° E 04:00:48 10° SE visible
28 Nov 7.5 05:28:22 10° N 05:31:28 28° WNW 05:34:36 10° SW visible
29 Nov 6.5 05:01:45 10° N 05:05:18 59° WNW 05:08:53 10° SSW visible
30 Nov 7.1 04:35:27 10° NNE 04:39:02 61° E 04:42:39 10° S visible
30 Nov 9.6 16:45:51 10° SW 16:48:18 18° W 16:50:47 10° NW visible
01 Dec 8.7 04:09:29 10° NE 04:12:40 28° E 04:15:52 10° SSE visible
01 Dec 7.9 05:43:10 10° NNW 05:45:49 19° WNW 05:48:29 10° WSW visible
01 Dec 8.1 16:18:39 10° S 16:21:52 39° W 16:25:08 10° NNW visible
02 Dec 9.8 03:44:10 10° ENE 03:46:12 14° E 03:48:13 10° SE visible
02 Dec 7.0 05:16:18 10° N 05:19:41 38° WNW 05:23:06 10° SW visible
03 Dec 6.5 04:49:47 10° N 04:53:27 85° WNW 04:57:07 10° SSW visible
03 Dec 9.9 17:01:17 10° WSW 17:02:48 12° W 17:04:19 10° WNW visible
04 Dec 7.8 04:23:36 10° NNE 04:27:07 43° E 04:30:37 10° S visible
04 Dec 9.0 16:33:22 10° SSW 16:36:17 25° W 16:39:14 10° NW visible
